Regional Weather Roundup
Issued by NWS

Home | Current Version | Previous Version | Text Only | Print | Product List | Glossary On
Versions: 1 2 3 4 5 6 7 8 9 10 11 12 13 14 15 16 17 18 19 20 21 22 23 24 25 26 27 28 29 30 31 32 33 34 35 36 37 38 39 40 41 42 43 44 45 46 47 48 49 50
000
ASUS45 KSLC 290510
RWRUT

UTAH REGIONAL WEATHER ROUNDUP
NATIONAL WEATHER SERVICE SALT LAKE CITY UT
1100 PM MDT THU AUG 28 2014

UTZ001>011-023>025-290600-

NORTHERN UTAH

CITY           SKY/WX    TMP DP  RH WIND       PRES   REMARKS
HILL AFB       CLEAR     68  43  40 E14       30.13F
LOGAN          CLEAR     66  51  58 E3        30.10S
OGDEN          CLEAR     68  43  40 S10       30.10F
PROVO AIRPORT  CLEAR     63  52  67 CALM      30.16S
SALT LAKE CITY CLEAR     68  43  40 SE10      30.09F
VERNAL         MOCLDY    63  53  70 NW6       30.17S
WENDOVER       CLEAR     73  37  27 W5        30.09S
HEBER CITY     CLEAR     52  46  82 CALM      30.22S
WEST JORDAN    CLEAR     66  50  55 SW7       30.13F

$$

UTZ012>022-026-027-290600-

SOUTHERN UTAH

CITY           SKY/WX    TMP DP  RH WIND       PRES   REMARKS
BRYCE CANYON   CLEAR     49  40  71 W9        30.36S
CEDAR CITY     CLEAR     64  36  35 SE3       30.19S
MILFORD        CLEAR     65  42  43 W8        30.15S
MOAB/CYNLANDS  CLEAR     66  46  48 SW3       30.10F
PRICE          CLEAR     62  42  47 N8        30.22S
ST GEORGE      CLEAR     79  45  29 SE5       29.99S

$$

REGIONAL REPORTS     COLORADO/ARIZONA

CITY           SKY/WX    TMP DP  RH WIND       PRES   REMARKS
CRAIG, CO      CLEAR     53  49  86 SE3       30.23R
GRAND JUNCTION CLEAR     62  54  74 SE7       30.15S
RIFLE          CLEAR     58  50  75 SE6       30.21R
MONTROSE       CLEAR     59  48  67 SE12      30.25S
CORTEZ         CLEAR     55  48  77 N3        30.23F
PAGE, AZ       CLEAR     76  41  28 S3        30.10S
GRAND CANYON     N/A    N/A N/A N/A MISG        N/A
KINGMAN        CLEAR     71  34  25 SE6       30.03S
FLAGSTAFF      CLEAR     53  43  68 CALM      30.32R

$$

REGIONAL REPORTS    NEVADA/IDAHO/WYOMING

CITY           SKY/WX    TMP DP  RH WIND       PRES   REMARKS
LAS VEGAS, NV  CLEAR     92  31  11 S13       29.87S
ELY            CLEAR     56  35  45 S10       30.23R
ELKO           CLEAR     65  33  30 CALM      30.11S
POCATELLO, ID  CLEAR     73  42  32 S13       30.06S
BURLEY         CLEAR     62  52  69 S3        30.04S
EVANSTON, WY   CLEAR     54  43  66 SW9       30.30S
ROCK SPRINGS   CLEAR     61  42  49 W12       30.23S

$$



USA.gov is the U.S. government's official web portal to all federal, state and local government web resources and services.